QPF
0.00 0.00 0.00 0.00 0.00 0.00 0.00 0.00 0.00 0.00 0.00 0.00 0.00 0.00 0.00 0.00 0.00 0.00 0.00 0.00 0.00 0.00 0.00 0.00 0.00 0.00 0.00 0.01 0.01 0.01 0.03 0.06 0.11 0.18 0.26 0.36 0.38 0.33 0.26 0.24 0.24 0.24 0.29 0.34
0.00 0.00 0.00 0.00 0.00 0.00 0.00 0.00 0.00 0.00 0.00 0.00 0.00 0.00 0.00 0.00 0.00 0.00 0.00 0.00 0.00 0.00 0.00 0.00 0.00 0.00 0.00 0.02 0.03 0.03 0.03 0.08 0.17 0.31 0.43 0.53 0.56 0.51 0.44 0.37 0.38 0.41 0.42 0.41
0.00 0.00 0.00 0.00 0.00 0.00 0.00 0.00 0.00 0.00 0.00 0.00 0.00 0.00 0.00 0.00 0.00 0.00 0.00 0.00 0.00 0.00 0.00 0.00 0.00 0.00 0.01 0.03 0.04 0.04 0.06 0.14 0.28 0.44 0.60 0.66 0.64 0.56 0.49 0.43 0.44 0.45 0.45 0.44
0.00 0.00 0.00 0.00 0.00 0.00 0.00 0.00 0.00 0.00 0.00 0.00 0.00 0.00 0.00 0.00 0.00 0.00 0.00 0.00 0.00 0.00 0.00 0.00 0.00 0.01 0.02 0.03 0.04 0.05 0.11 0.24 0.41 0.54 0.63 0.64 0.63 0.58 0.54 0.46 0.45 0.44 0.42 0.41
0.00 0.00 0.00 0.00 0.00 0.00 0.00 0.00 0.00 0.00 0.00 0.00 0.00 0.00 0.00 0.00 0.00 0.00 0.00 0.00 0.00 0.00 0.00 0.00 0.00 0.01 0.03 0.04 0.06 0.08 0.16 0.31 0.48 0.60 0.66 0.73 0.74 0.67 0.57 0.48 0.42 0.37 0.31 0.25
0.00 0.00 0.00 0.00 0.00 0.00 0.00 0.00 0.00 0.00 0.00 0.00 0.00 0.00 0.00 0.00 0.00 0.00 0.00 0.00 0.00 0.00 0.00 0.00 0.01 0.01 0.03 0.05 0.09 0.14 0.23 0.39 0.54 0.63 0.69 0.69 0.65 0.52 0.40 0.36 0.33 0.27 0.21 0.15
0.00 0.00 0.00 0.00 0.00 0.00 0.00 0.00 0.00 0.00 0.00 0.00 0.00 0.00 0.00 0.00 0.00 0.00 0.00 0.01 0.01 0.01 0.01 0.01 0.02 0.04 0.05 0.08 0.13 0.20 0.32 0.46 0.60 0.64 0.59 0.50 0.40 0.31 0.28 0.28 0.24 0.19 0.14 0.10
0.00 0.00 0.00 0.00 0.00 0.00 0.00 0.00 0.00 0.00 0.00 0.00 0.00 0.00 0.00 0.01 0.01 0.01 0.01 0.01 0.01 0.01 0.02 0.02 0.04 0.06 0.08 0.12 0.21 0.29 0.39 0.50 0.53 0.46 0.39 0.31 0.25 0.21 0.19 0.15 0.11 0.08 0.06 0.04
0.00 0.00 0.00 0.00 0.00 0.00 0.00 0.00 0.00 0.00 0.00 0.00 0.00 0.00 0.00 0.00 0.01 0.01 0.01 0.01 0.01 0.02 0.03 0.04 0.06 0.07 0.10 0.15 0.22 0.28 0.34 0.35 0.30 0.21 0.15 0.12 0.10 0.09 0.08 0.06 0.04 0.03 0.02 0.02
0.00 0.00 0.00 0.00 0.00 0.00 0.00 0.00 0.00 0.00 0.00 0.00 0.00 0.00 0.00 0.01 0.01 0.01 0.01 0.02 0.02 0.02 0.03 0.04 0.06 0.09 0.11 0.14 0.15 0.15 0.15 0.12 0.09 0.06 0.04 0.04 0.05 0.05 0.04 0.03 0.02 0.02 0.02 0.01
0.00 0.00 0.00 0.00 0.00 0.00 0.00 0.00 0.00 0.00 0.00 0.00 0.00 0.00 0.00 0.01 0.01 0.01 0.02 0.03 0.03 0.04 0.05 0.05 0.06 0.07 0.07 0.06 0.05 0.04 0.03 0.03 0.02 0.02 0.02 0.01 0.02 0.01 0.01 0.01 0.01 0.01 0.01 0.01
0.00 0.00 0.00 0.00 0.00 0.00 0.00 0.00 0.00 0.00 0.00 0.00 0.00 0.00 0.00 0.01 0.02 0.02 0.02 0.03 0.03 0.04 0.04 0.05 0.04 0.03 0.02 0.02 0.02 0.02 0.01 0.01 0.01 0.01 0.01 0.01 0.01 0.01 0.01 0.01 0.01 0.01 0.01 0.01
0.00 0.00 0.00 0.00 0.00 0.00 0.00 0.00 0.00 0.00 0.00 0.00 0.00 0.00 0.01 0.01 0.02 0.02 0.03 0.03 0.04 0.03 0.03 0.03 0.03 0.02 0.01 0.01 0.01 0.01 0.00 0.00 0.00 0.00 0.00 0.00 0.00 0.00 0.00 0.01 0.01 0.01 0.01 0.01
0.00 0.00 0.00 0.00 0.00 0.00 0.00 0.00 0.00 0.00 0.00 0.00 0.00 0.01 0.02 0.02 0.02 0.03 0.03 0.03 0.02 0.02 0.01 0.01 0.01 0.01 0.01 0.01 0.00 0.00 0.00 0.00 0.00 0.00 0.00 0.00 0.00 0.00 0.01 0.01 0.01 0.01 0.01 0.02
0.00 0.00 0.00 0.00 0.00 0.00 0.00 0.00 0.00 0.00 0.00 0.00 0.01 0.02 0.03 0.04 0.03 0.03 0.03 0.03 0.02 0.02 0.01 0.01 0.01 0.00 0.00 0.00 0.00 0.00 0.00 0.00 0.00 0.00 0.00 0.01 0.01 0.01 0.01 0.02 0.02 0.02 0.02 0.01
0.00 0.00 0.00 0.00 0.00 0.00 0.00 0.00 0.00 0.00 0.00 0.01 0.02 0.02 0.04 0.05 0.04 0.04 0.04 0.03 0.02 0.02 0.01 0.01 0.00 0.00 0.00 0.00 0.00 0.00 0.00 0.00 0.00 0.00 0.01 0.01 0.02 0.02 0.02 0.02 0.01 0.01 0.01 0.01
0.00 0.00 0.00 0.00 0.00 0.00 0.00 0.00 0.01 0.01 0.01 0.02 0.02 0.03 0.05 0.06 0.06 0.05 0.05 0.04 0.02 0.01 0.01 0.01 0.00 0.00 0.00 0.00 0.00 0.00 0.00 0.00 0.01 0.01 0.02 0.02 0.02 0.02 0.02 0.02 0.01 0.01 0.01 0.00
0.00 0.00 0.00 0.00 0.00 0.00 0.01 0.01 0.01 0.01 0.02 0.02 0.02 0.02 0.04 0.05 0.05 0.04 0.03 0.02 0.01 0.01 0.00 0.00 0.00 0.00 0.00 0.00 0.00 0.01 0.01 0.01 0.01 0.02 0.02 0.02 0.02 0.02 0.01 0.01 0.01 0.00 0.00 0.00
0.00 0.01 0.01 0.01 0.00 0.01 0.01 0.01 0.01 0.01 0.01 0.02 0.03 0.03 0.03 0.03 0.02 0.02 0.01 0.01 0.00 0.00 0.00 0.00 0.00 0.00 0.00 0.01 0.01 0.01 0.01 0.02 0.02 0.02 0.02 0.01 0.01 0.01 0.00 0.00 0.00 0.00 0.00 0.00
0.00 0.01 0.01 0.01 0.01 0.01 0.01 0.01 0.01 0.02 0.01 0.02 0.02 0.02 0.02 0.02 0.01 0.01 0.00 0.00 0.00 0.00 0.00 0.00 0.00 0.00 0.01 0.01 0.01 0.01 0.02 0.02 0.02 0.01 0.01 0.01 0.00 0.00 0.00 0.00 0.00 0.00 0.00 0.00
0.00 0.00 0.01 0.01 0.01 0.01 0.01 0.01 0.02 0.02 0.02 0.03 0.03 0.03 0.02 0.01 0.01 0.00 0.00 0.00 0.00 0.00 0.00 0.00 0.01 0.01 0.01 0.01 0.01 0.01 0.01 0.01 0.01 0.00 0.00 0.00 0.00 0.00 0.00 0.00 0.00 0.00 0.00 0.00
0.01 0.01 0.01 0.01 0.01 0.01 0.01 0.01 0.02 0.02 0.01 0.02 0.02 0.01 0.01 0.00 0.00 0.00 0.00 0.00 0.00 0.00 0.00 0.00 0.00 0.01 0.01 0.01 0.01 0.01 0.01 0.00 0.00 0.00 0.00 0.00 0.00 0.00 0.00 0.00 0.00 0.00 0.00 0.00
0.02 0.04 0.05 0.04 0.03 0.02 0.01 0.01 0.01 0.01 0.01 0.01 0.01 0.01 0.00 0.00 0.00 0.00 0.00 0.00 0.00 0.00 0.01 0.01 0.01 0.01 0.01 0.00 0.00 0.00 0.00 0.00 0.00 0.00 0.00 0.00 0.00 0.00 0.00 0.00 0.00 0.00 0.00 0.00
0.00 0.01 0.02 0.02 0.02 0.02 0.01 0.01 0.00 0.00 0.00 0.00 0.00 0.00 0.00 0.00 0.00 0.00 0.00 0.00 0.00 0.00 0.00 0.00 0.00 0.00 0.00 0.00 0.00 0.00 0.00 0.00 0.00 0.00 0.00 0.00 0.00 0.00 0.00 0.00 0.00 0.00 0.00 0.00
0.00 0.01 0.02 0.02 0.01 0.01 0.00 0.00 0.00 0.00 0.00 0.00 0.00 0.00 0.01 0.01 0.01 0.01 0.01 0.01 0.00 0.00 0.00 0.00 0.00 0.00 0.00 0.00 0.00 0.00 0.00 0.00 0.00 0.00 0.00 0.00 0.00 0.00 0.00 0.00 0.00 0.00 0.00 0.00
0.00 0.00 0.00 0.00 0.00 0.00 0.00 0.00 0.00 0.00 0.00 0.01 0.00 0.01 0.02 0.02 0.02 0.02 0.01 0.00 0.00 0.00 0.00 0.00 0.00 0.00 0.00 0.00 0.00 0.00 0.00 0.00 0.00 0.00 0.00 0.00 0.00 0.00 0.00 0.00 0.00 0.00 0.00 0.00
MSLP
1012.24 1013.01 1013.55 1013.87 1013.99 1013.97 1013.87 1013.75 1013.61 1013.48 1013.30 1013.04 1012.66 1012.15 1011.50 1010.76 1009.99 1009.26 1008.64 1008.16 1007.85 1007.70 1007.67 1007.71 1007.79 1007.88 1007.97 1008.10 1008.30 1008.62 1009.10 1009.75 1010.56 1011.50 1012.48 1013.44 1014.31 1015.04 1015.59 1015.97 1016.20 1016.36 1016.48 1016.63
1012.45 1013.12 1013.57 1013.81 1013.89 1013.89 1013.87 1013.86 1013.87 1013.88 1013.82 1013.63 1013.27 1012.71 1011.97 1011.10 1010.18 1009.32 1008.58 1008.02 1007.67 1007.50 1007.48 1007.55 1007.66 1007.76 1007.87 1007.99 1008.19 1008.51 1009.00 1009.68 1010.53 1011.52 1012.58 1013.62 1014.57 1015.36 1015.96 1016.37 1016.62 1016.77 1016.88 1016.99
1012.36 1012.94 1013.30 1013.49 1013.58 1013.65 1013.74 1013.89 1014.08 1014.24 1014.31 1014.19 1013.84 1013.24 1012.40 1011.41 1010.36 1009.37 1008.53 1007.91 1007.53 1007.38 1007.40 1007.51 1007.67 1007.81 1007.94 1008.08 1008.27 1008.58 1009.05 1009.72 1010.58 1011.58 1012.67 1013.75 1014.75 1015.59 1016.24 1016.70 1016.99 1017.16 1017.28 1017.39
1011.96 1012.44 1012.74 1012.92 1013.06 1013.23 1013.49 1013.83 1014.21 1014.55 1014.75 1014.71 1014.38 1013.74 1012.83 1011.72 1010.56 1009.47 1008.56 1007.90 1007.52 1007.39 1007.46 1007.64 1007.85 1008.05 1008.22 1008.37 1008.55 1008.83 1009.26 1009.89 1010.70 1011.67 1012.73 1013.81 1014.82 1015.70 1016.39 1016.91 1017.26 1017.48 1017.64 1017.77
1011.32 1011.70 1011.95 1012.14 1012.36 1012.67 1013.11 1013.66 1014.25 1014.77 1015.12 1015.18 1014.88 1014.23 1013.26 1012.08 1010.84 1009.68 1008.73 1008.05 1007.68 1007.59 1007.71 1007.96 1008.24 1008.49 1008.69 1008.85 1009.02 1009.25 1009.63 1010.18 1010.91 1011.80 1012.80 1013.83 1014.82 1015.70 1016.43 1016.99 1017.41 1017.71 1017.93 1018.11
1010.57 1010.84 1011.04 1011.25 1011.55 1012.01 1012.64 1013.40 1014.20 1014.91 1015.40 1015.56 1015.32 1014.68 1013.70 1012.49 1011.22 1010.03 1009.06 1008.39 1008.05 1008.00 1008.18 1008.49 1008.83 1009.12 1009.35 1009.52 1009.67 1009.86 1010.16 1010.61 1011.24 1012.02 1012.92 1013.87 1014.80 1015.66 1016.39 1017.00 1017.48 1017.85 1018.15 1018.40
1009.85 1010.00 1010.15 1010.37 1010.75 1011.35 1012.14 1013.08 1014.06 1014.93 1015.55 1015.81 1015.64 1015.05 1014.09 1012.91 1011.65 1010.49 1009.55 1008.92 1008.62 1008.62 1008.86 1009.22 1009.60 1009.94 1010.19 1010.37 1010.50 1010.64 1010.87 1011.22 1011.73 1012.38 1013.16 1013.99 1014.84 1015.65 1016.37 1016.99 1017.51 1017.95 1018.32 1018.65
1009.31 1009.34 1009.41 1009.64 1010.07 1010.75 1011.67 1012.74 1013.84 1014.83 1015.55 1015.89 1015.80 1015.27 1014.39 1013.28 1012.10 1011.01 1010.15 1009.59 1009.35 1009.42 1009.70 1010.10 1010.53 1010.90 1011.18 1011.36 1011.48 1011.59 1011.75 1012.01 1012.41 1012.94 1013.58 1014.29 1015.03 1015.76 1016.43 1017.04 1017.58 1018.06 1018.49 1018.88
1009.04 1008.95 1008.95 1009.14 1009.59 1010.31 1011.27 1012.40 1013.56 1014.59 1015.37 1015.77 1015.75 1015.31 1014.53 1013.54 1012.49 1011.54 1010.79 1010.34 1010.19 1010.32 1010.66 1011.10 1011.56 1011.96 1012.26 1012.45 1012.57 1012.66 1012.79 1012.98 1013.29 1013.70 1014.22 1014.81 1015.43 1016.05 1016.66 1017.22 1017.75 1018.24 1018.69 1019.12
1009.09 1008.88 1008.80 1008.94 1009.36 1010.05 1011.00 1012.10 1013.23 1014.24 1015.01 1015.44 1015.47 1015.13 1014.49 1013.66 1012.78 1012.00 1011.43 1011.11 1011.08 1011.29 1011.68 1012.16 1012.64 1013.06 1013.38 1013.60 1013.73 1013.83 1013.94 1014.10 1014.33 1014.66 1015.07 1015.54 1016.04 1016.56 1017.07 1017.57 1018.05 1018.51 1018.96 1019.40
1009.42 1009.12 1008.97 1009.05 1009.39 1010.02 1010.87 1011.87 1012.89 1013.81 1014.52 1014.93 1015.00 1014.75 1014.26 1013.62 1012.96 1012.40 1012.02 1011.87 1011.97 1012.27 1012.72 1013.23 1013.73 1014.16 1014.50 1014.74 1014.90 1015.02 1015.13 1015.28 1015.48 1015.75 1016.08 1016.45 1016.85 1017.26 1017.67 1018.08 1018.49 1018.91 1019.32 1019.74
1009.93 1009.58 1009.38 1009.40 1009.67 1010.18 1010.89 1011.73 1012.59 1013.37 1013.96 1014.32 1014.41 1014.25 1013.91 1013.48 1013.06 1012.73 1012.57 1012.61 1012.85 1013.25 1013.75 1014.28 1014.79 1015.23 1015.58 1015.83 1016.02 1016.16 1016.30 1016.45 1016.65 1016.88 1017.15 1017.44 1017.75 1018.07 1018.39 1018.71 1019.05 1019.40 1019.76 1020.13
1010.53 1010.18 1009.97 1009.94 1010.12 1010.51 1011.06 1011.71 1012.37 1012.97 1013.43 1013.71 1013.80 1013.73 1013.55 1013.32 1013.14 1013.06 1013.12 1013.35 1013.73 1014.21 1014.76 1015.30 1015.81 1016.23 1016.57 1016.84 1017.04 1017.21 1017.37 1017.54 1017.74 1017.95 1018.19 1018.43 1018.68 1018.92 1019.16 1019.41 1019.67 1019.96 1020.26 1020.59
1011.15 1010.84 1010.64 1010.59 1010.71 1010.98 1011.37 1011.82 1012.29 1012.70 1013.02 1013.22 1013.30 1013.30 1013.26 1013.24 1013.28 1013.43 1013.71 1014.12 1014.62 1015.18 1015.75 1016.29 1016.77 1017.17 1017.48 1017.73 1017.93 1018.11 1018.29 1018.48 1018.69 1018.90 1019.12 1019.34 1019.54 1019.73 1019.92 1020.11 1020.32 1020.55 1020.80 1021.08
1011.76 1011.50 1011.35 1011.30 1011.38 1011.55 1011.80 1012.08 1012.36 1012.60 1012.79 1012.91 1012.99 1013.06 1013.15 1013.30 1013.55 1013.91 1014.38 1014.93 1015.53 1016.15 1016.73 1017.25 1017.69 1018.04 1018.31 1018.52 1018.71 1018.88 1019.06 1019.26 1019.47 1019.69 1019.91 1020.11 1020.29 1020.46 1020.62 1020.78 1020.95 1021.14 1021.36 1021.59
1012.34 1012.17 1012.07 1012.04 1012.09 1012.20 1012.33 1012.48 1012.60 1012.71 1012.79 1012.85 1012.93 1013.06 1013.26 1013.56 1013.98 1014.51 1015.12 1015.79 1016.47 1017.11 1017.69 1018.17 1018.56 1018.85 1019.06 1019.23 1019.38 1019.53 1019.70 1019.90 1020.12 1020.34 1020.56 1020.76 1020.94 1021.10 1021.25 1021.39 1021.55 1021.72 1021.92 1022.11
1012.94 1012.83 1012.78 1012.78 1012.82 1012.88 1012.94 1012.99 1013.01 1013.01 1013.01 1013.04 1013.12 1013.30 1013.59 1014.02 1014.56 1015.22 1015.94 1016.68 1017.41 1018.06 1018.62 1019.05 1019.38 1019.60 1019.76 1019.87 1019.98 1020.10 1020.26 1020.44 1020.66 1020.88 1021.10 1021.31 1021.50 1021.67 1021.82 1021.97 1022.12 1022.28 1022.45 1022.63
1013.57 1013.51 1013.50 1013.52 1013.55 1013.58 1013.60 1013.57 1013.53 1013.47 1013.43 1013.44 1013.53 1013.75 1014.11 1014.62 1015.26 1015.99 1016.78 1017.57 1018.31 1018.96 1019.49 1019.88 1020.14 1020.31 1020.41 1020.48 1020.55 1020.64 1020.78 1020.95 1021.16 1021.38 1021.61 1021.82 1022.02 1022.20 1022.36 1022.51 1022.67 1022.82 1022.97 1023.11
1014.26 1014.21 1014.21 1014.23 1014.26 1014.27 1014.25 1014.20 1014.11 1014.02 1013.96 1013.97 1014.09 1014.34 1014.74 1015.31 1016.00 1016.78 1017.60 1018.41 1019.14 1019.77 1020.27 1020.62 1020.85 1020.97 1021.03 1021.07 1021.11 1021.18 1021.30 1021.47 1021.67 1021.89 1022.12 1022.34 1022.55 1022.73 1022.90 1023.05 1023.20 1023.33 1023.45 1023.56
1014.98 1014.91 1014.90 1014.91 1014.92 1014.92 1014.88 1014.81 1014.71 1014.62 1014.56 1014.58 1014.71 1014.99 1015.43 1016.02 1016.73 1017.53 1018.35 1019.15 1019.88 1020.49 1020.96 1021.28 1021.48 1021.58 1021.62 1021.64 1021.67 1021.73 1021.85 1022.01 1022.20 1022.43 1022.65 1022.88 1023.08 1023.27 1023.43 1023.57 1023.70 1023.81 1023.90 1023.95
1015.69 1015.59 1015.54 1015.52 1015.51 1015.49 1015.45 1015.37 1015.28 1015.20 1015.15 1015.19 1015.35 1015.65 1016.10 1016.70 1017.41 1018.21 1019.02 1019.80 1020.50 1021.09 1021.54 1021.85 1022.03 1022.13 1022.16 1022.18 1022.21 1022.27 1022.38 1022.54 1022.74 1022.96 1023.19 1023.41 1023.61 1023.79 1023.94 1024.06 1024.16 1024.23 1024.28 1024.28
1016.33 1016.19 1016.10 1016.06 1016.02 1015.99 1015.94 1015.87 1015.79 1015.73 1015.71 1015.78 1015.96 1016.27 1016.73 1017.33 1018.03 1018.80 1019.60 1020.35 1021.03 1021.59 1022.02 1022.32 1022.50 1022.59 1022.63 1022.65 1022.68 1022.75 1022.86 1023.02 1023.22 1023.44 1023.67 1023.88 1024.08 1024.25 1024.38 1024.48 1024.55 1024.58 1024.58 1024.53
1016.86 1016.69 1016.57 1016.49 1016.45 1016.41 1016.36 1016.31 1016.25 1016.22 1016.23 1016.32 1016.52 1016.85 1017.31 1017.90 1018.59 1019.33 1020.09 1020.82 1021.47 1022.01 1022.42 1022.70 1022.88 1022.97 1023.00 1023.02 1023.06 1023.12 1023.24 1023.39 1023.59 1023.81 1024.03 1024.25 1024.44 1024.60 1024.72 1024.80 1024.84 1024.84 1024.79 1024.70
1017.25 1017.06 1016.93 1016.84 1016.79 1016.75 1016.72 1016.69 1016.66 1016.66 1016.71 1016.83 1017.05 1017.38 1017.85 1018.43 1019.09 1019.81 1020.54 1021.23 1021.85 1022.36 1022.75 1023.01 1023.17 1023.25 1023.27 1023.28 1023.30 1023.36 1023.46 1023.61 1023.80 1024.01 1024.24 1024.45 1024.64 1024.80 1024.92 1024.99 1025.01 1024.98 1024.91 1024.79
1017.49 1017.31 1017.19 1017.11 1017.07 1017.05 1017.05 1017.04 1017.05 1017.08 1017.16 1017.31 1017.55 1017.90 1018.36 1018.92 1019.57 1020.26 1020.95 1021.61 1022.19 1022.67 1023.02 1023.26 1023.38 1023.43 1023.43 1023.41 1023.41 1023.44 1023.52 1023.65 1023.83 1024.04 1024.26 1024.48 1024.68 1024.85 1024.97 1025.05 1025.07 1025.04 1024.95 1024.82
1017.61 1017.47 1017.37 1017.33 1017.32 1017.33 1017.36 1017.40 1017.44 1017.51 1017.61 1017.79 1018.04 1018.40 1018.85 1019.40 1020.03 1020.69 1021.35 1021.96 1022.50 1022.94 1023.25 1023.45 1023.54 1023.54 1023.50 1023.44 1023.39 1023.39 1023.44 1023.54 1023.71 1023.91 1024.14 1024.37 1024.59 1024.77 1024.91 1025.00 1025.04 1025.01 1024.93 1024.79
Thickness
5692 5682 5679 5686 5695 5700 5705 5706 5707 5716 5731 5732 5732 5736 5751 5763 5765 5768 5772 5775 5780 5789 5800 5798 5798 5797 5794 5790 5785 5780 5773 5765 5756 5746 5736 5726 5717 5713 5708 5704 5700 5697 5694 5689
5676 5676 5688 5695 5694 5696 5697 5697 5701 5712 5725 5727 5725 5730 5748 5759 5762 5767 5771 5774 5778 5784 5787 5789 5791 5791 5789 5786 5781 5775 5768 5761 5753 5745 5736 5725 5714 5705 5698 5692 5689 5687 5685 5682
5672 5684 5694 5690 5688 5687 5688 5690 5697 5701 5709 5715 5717 5716 5734 5753 5759 5763 5768 5772 5775 5778 5781 5783 5783 5783 5782 5778 5775 5770 5763 5754 5746 5738 5727 5716 5703 5695 5688 5683 5679 5678 5676 5673
5670 5684 5689 5685 5685 5685 5679 5695 5697 5698 5691 5683 5699 5683 5716 5736 5742 5752 5757 5761 5766 5772 5776 5778 5777 5776 5773 5770 5767 5761 5754 5745 5736 5728 5717 5709 5697 5687 5680 5675 5671 5668 5665 5662
5669 5681 5681 5680 5686 5688 5688 5698 5694 5692 5686 5678 5684 5678 5697 5722 5732 5742 5748 5752 5758 5764 5767 5769 5768 5766 5762 5759 5755 5749 5741 5733 5725 5718 5710 5702 5692 5682 5674 5666 5661 5658 5655 5652
5675 5686 5687 5688 5695 5694 5693 5687 5677 5667 5664 5662 5678 5670 5683 5708 5721 5730 5738 5744 5748 5753 5756 5756 5755 5753 5750 5746 5741 5735 5728 5721 5714 5707 5699 5690 5682 5672 5665 5658 5652 5647 5645 5642
5666 5677 5687 5694 5688 5689 5682 5662 5643 5648 5641 5653 5680 5675 5682 5707 5717 5721 5727 5732 5737 5741 5742 5742 5740 5738 5735 5731 5727 5721 5716 5708 5702 5696 5689 5681 5672 5664 5657 5651 5645 5639 5634 5629
5646 5652 5678 5687 5684 5676 5671 5663 5643 5639 5643 5654 5673 5672 5686 5703 5711 5717 5720 5722 5725 5726 5726 5726 5724 5722 5719 5716 5712 5708 5702 5696 5690 5685 5679 5670 5661 5653 5646 5642 5636 5629 5624 5618
5644 5651 5681 5691 5696 5687 5670 5662 5672 5653 5651 5651 5659 5674 5686 5697 5700 5705 5708 5709 5709 5709 5709 5709 5707 5705 5702 5699 5695 5691 5686 5680 5673 5669 5663 5655 5648 5641 5635 5629 5623 5617 5611 5606
5655 5652 5674 5689 5692 5690 5685 5672 5653 5645 5636 5638 5656 5665 5664 5678 5685 5691 5694 5695 5695 5695 5694 5692 5690 5687 5685 5682 5678 5674 5671 5664 5659 5653 5647 5639 5632 5627 5622 5616 5609 5603 5597 5591
5658 5651 5662 5674 5675 5674 5672 5668 5659 5647 5650 5641 5640 5651 5670 5672 5679 5681 5682 5683 5681 5680 5678 5676 5673 5670 5668 5664 5661 5657 5653 5648 5642 5636 5630 5624 5618 5613 5607 5601 5595 5588 5581 5575
5652 5646 5645 5660 5675 5682 5677 5669 5656 5650 5648 5647 5645 5646 5668 5672 5676 5676 5673 5671 5668 5665 5663 5661 5658 5655 5652 5648 5644 5640 5636 5631 5626 5621 5616 5609 5604 5598 5591 5584 5577 5571 5564 5558
5646 5639 5635 5643 5653 5663 5665 5666 5660 5652 5643 5638 5639 5644 5662 5667 5667 5665 5662 5658 5654 5651 5649 5646 5643 5640 5636 5632 5628 5624 5619 5615 5610 5604 5598 5592 5586 5580 5572 5565 5559 5553 5546 5540
5643 5630 5628 5628 5636 5648 5651 5656 5659 5653 5639 5637 5641 5645 5650 5653 5653 5650 5647 5644 5640 5637 5634 5630 5626 5622 5618 5615 5611 5607 5602 5598 5593 5587 5580 5573 5567 5560 5553 5547 5541 5535 5529 5522
5631 5621 5627 5632 5640 5644 5640 5641 5649 5649 5646 5639 5639 5640 5641 5642 5641 5637 5634 5631 5627 5622 5618 5613 5608 5604 5601 5597 5593 5589 5584 5580 5575 5569 5562 5555 5548 5541 5535 5529 5522 5516 5510 5504
5613 5613 5618 5620 5628 5630 5627 5629 5635 5637 5638 5637 5635 5629 5629 5630 5629 5624 5621 5618 5613 5607 5602 5596 5592 5588 5584 5579 5575 5570 5565 5560 5556 5550 5543 5537 5531 5524 5517 5510 5504 5498 5491 5485
5598 5602 5601 5601 5612 5618 5609 5612 5619 5620 5622 5627 5625 5623 5620 5616 5612 5608 5607 5604 5599 5593 5586 5580 5575 5570 5565 5560 5557 5552 5547 5542 5538 5532 5525 5519 5513 5507 5500 5493 5486 5480 5473 5468
5590 5588 5584 5588 5597 5591 5596 5607 5610 5608 5608 5613 5614 5611 5608 5601 5594 5590 5589 5587 5582 5576 5568 5563 5558 5553 5548 5543 5539 5535 5530 5525 5519 5513 5507 5501 5495 5488 5481 5475 5468 5462 5457 5452
5580 5580 5575 5573 5577 5582 5589 5596 5595 5596 5594 5597 5597 5594 5590 5587 5585 5575 5570 5568 5563 5557 5551 5546 5541 5537 5532 5527 5523 5518 5513 5507 5502 5495 5489 5483 5477 5470 5464 5458 5452 5447 5442 5438
5570 5570 5566 5565 5570 5569 5579 5585 5588 5588 5581 5584 5583 5581 5579 5579 5574 5563 5553 5550 5545 5540 5536 5531 5526 5521 5516 5510 5507 5502 5496 5490 5484 5478 5472 5466 5460 5454 5448 5443 5437 5432 5428 5425
5556 5555 5555 5556 5559 5564 5566 5571 5577 5570 5572 5572 5570 5568 5566 5563 5557 5546 5540 5535 5530 5525 5521 5516 5511 5505 5500 5495 5491 5485 5479 5473 5468 5463 5457 5451 5445 5440 5435 5429 5424 5420 5416 5412
5548 5547 5547 5546 5550 5552 5552 5560 5560 5557 5556 5558 5557 5555 5550 5543 5538 5532 5526 5520 5515 5510 5506 5501 5496 5491 5486 5481 5477 5470 5464 5459 5454 5449 5443 5438 5433 5428 5423 5417 5411 5407 5403 5399
5542 5541 5540 5541 5541 5539 5538 5539 5540 5542 5544 5545 5543 5541 5537 5532 5525 5519 5512 5507 5502 5498 5493 5488 5483 5478 5473 5469 5464 5458 5452 5447 5442 5437 5431 5425 5421 5415 5410 5405 5400 5395 5391 5387
5541 5538 5536 5537 5538 5535 5532 5531 5531 5533 5534 5535 5534 5531 5527 5521 5514 5507 5501 5495 5490 5486 5481 5477 5472 5467 5462 5457 5453 5448 5443 5438 5432 5426 5420 5414 5409 5404 5398 5393 5389 5385 5381 5378
5538 5536 5533 5534 5534 5530 5527 5524 5523 5524 5524 5524 5522 5519 5515 5510 5503 5496 5490 5485 5480 5476 5470 5466 5462 5457 5453 5449 5444 5440 5435 5429 5423 5417 5411 5405 5399 5393 5388 5384 5380 5377 5374 5371
5530 5531 5531 5531 5530 5524 5520 5518 5518 5516 5515 5514 5511 5507 5503 5499 5492 5486 5480 5475 5471 5466 5462 5458 5454 5450 5446 5441 5437 5432 5427 5421 5414 5408 5401 5395 5389 5384 5380 5376 5373 5371 5369 5368